When you browse on this site, cookies collect data to enhance your experience and personalize the content and advertising you see.
Visit our Privacy Policy to learn more. By continuing to use the site, you agree to this use of cookies and data.
  • In Austria
  • List of Countries
  • For 7 days
  • Water Temperature
  • Satellite Maps
  • Weather Map
  • News
  • Weather Widgets
  • user-avatar
    Login

    Hourly Weather Tosya

    Today, 11 December, Tuesday

    Time Temperature Precipitation Wind Pressure Humidity
    00:00 +3°C° 0.8 mm 3 mps 663 mmHg 89%
    01:00 +3°C° 0.8 mm 3 mps 662 mmHg 90%
    02:00 +4°C° 0.8 mm 2 mps 662 mmHg 91%
    03:00 +3°C° 1.4 mm 3 mps 662 mmHg 91%
    04:00 +3°C° 1.4 mm 3 mps 662 mmHg 91%
    05:00 +3°C° 1.4 mm 3 mps 662 mmHg 91%
    06:00 +3°C° 0 mm 4 mps 663 mmHg 87%
    07:00 +3°C° 0 mm 4 mps 663 mmHg 84%
    08:00 +2°C° 0 mm 5 mps 664 mmHg 80%
    09:00 +2°C° 0.1 mm 5 mps 665 mmHg 76%
    10:00 +3°C° 0.1 mm 6 mps 665 mmHg 71%
    11:00 +3°C° 0.1 mm 7 mps 666 mmHg 67%
    12:00 +3°C° 0.2 mm 7 mps 667 mmHg 66%
    13:00 +2°C° 0.2 mm 7 mps 667 mmHg 65%
    14:00 +2°C° 0.2 mm 7 mps 668 mmHg 64%
    15:00 +2°C° 0.1 mm 6 mps 668 mmHg 68%
    16:00 +1°C° 0.1 mm 5 mps 669 mmHg 71%
    17:00 0°C° 0.1 mm 4 mps 670 mmHg 74%
    18:00 0°C° 0.1 mm 4 mps 670 mmHg 76%
    19:00 0°C° 0.1 mm 3 mps 670 mmHg 78%
    20:00 0°C° 0.1 mm 3 mps 670 mmHg 80%
    21:00 -1°C° 0 mm 2 mps 670 mmHg 81%
    22:00 -1°C° 0 mm 2 mps 670 mmHg 82%
    23:00 +1°C° 0 mm 1 mps 670 mmHg 82%

    Tomorrow, 12 December, Wednesday

    Time Temperature Precipitation Wind Pressure Humidity
    00:00 0°C° 0 mm 1 mps 671 mmHg 83%
    01:00 0°C° 0 mm 1 mps 671 mmHg 83%
    02:00 0°C° 0 mm 1 mps 671 mmHg 83%
    03:00 0°C° 0 mm 1 mps 670 mmHg 82%
    04:00 0°C° 0 mm 1 mps 670 mmHg 82%
    05:00 -1°C° 0 mm 0 mps 670 mmHg 81%
    06:00 -1°C° 0 mm 0 mps 670 mmHg 80%
    07:00 0°C° 0 mm 1 mps 670 mmHg 78%
    08:00 +1°C° 0 mm 1 mps 670 mmHg 76%
    09:00 +1°C° 0 mm 1 mps 671 mmHg 73%
    10:00 +2°C° 0 mm 1 mps 671 mmHg 69%
    11:00 +3°C° 0 mm 1 mps 671 mmHg 65%
    12:00 +3°C° 0.1 mm 1 mps 671 mmHg 65%
    13:00 +3°C° 0.1 mm 1 mps 671 mmHg 64%
    14:00 +3°C° 0.1 mm 1 mps 671 mmHg 64%
    15:00 +2°C° 0 mm 1 mps 671 mmHg 68%
    16:00 +1°C° 0 mm 1 mps 671 mmHg 73%
    17:00 +1°C° 0 mm 1 mps 671 mmHg 77%
    18:00 0°C° 0.2 mm 1 mps 671 mmHg 79%
    19:00 0°C° 0.2 mm 1 mps 672 mmHg 81%
    20:00 0°C° 0.2 mm 1 mps 672 mmHg 84%
    21:00 0°C° 0.5 mm 1 mps 673 mmHg 85%
    22:00 0°C° 0.5 mm 1 mps 673 mmHg 86%
    23:00 0°C° 0.5 mm 1 mps 673 mmHg 87%

    Day after tomorrow, 13 December, Thursday

    Time Temperature Precipitation Wind Pressure Humidity
    00:00 -3°C° 0.2 mm 2 mps 673 mmHg 87%
    01:00 -3°C° 0.2 mm 2 mps 674 mmHg 87%
    02:00 -4°C° 0.2 mm 2 mps 674 mmHg 87%
    03:00 -2°C° 0 mm 1 mps 674 mmHg 86%
    04:00 -3°C° 0 mm 1 mps 674 mmHg 85%
    05:00 -3°C° 0 mm 1 mps 674 mmHg 84%
    06:00 -3°C° 0 mm 1 mps 675 mmHg 82%
    07:00 -3°C° 0 mm 1 mps 675 mmHg 80%
    08:00 -3°C° 0 mm 1 mps 676 mmHg 79%
    09:00 -3°C° 0 mm 2 mps 676 mmHg 73%
    10:00 -2°C° 0 mm 2 mps 676 mmHg 67%
    11:00 -1°C° 0 mm 2 mps 677 mmHg 61%
    12:00 -1°C° 0 mm 2 mps 676 mmHg 59%
    13:00 0°C° 0 mm 3 mps 676 mmHg 57%
    14:00 0°C° 0 mm 3 mps 676 mmHg 55%
    15:00 -1°C° 0 mm 2 mps 676 mmHg 60%
    16:00 -3°C° 0 mm 2 mps 676 mmHg 64%
    17:00 -2°C° 0 mm 1 mps 675 mmHg 69%
    18:00 -4°C° 0 mm 2 mps 676 mmHg 69%
    19:00 -4°C° 0 mm 2 mps 676 mmHg 70%
    20:00 -4°C° 0 mm 2 mps 676 mmHg 70%
    21:00 -4°C° 0 mm 2 mps 676 mmHg 69%
    22:00 -4°C° 0 mm 2 mps 676 mmHg 69%
    23:00 -4°C° 0 mm 2 mps 675 mmHg 69%

    14 December, Friday

    Time Temperature Precipitation Wind Pressure Humidity
    00:00 -4°C° 0.1 mm 2 mps 675 mmHg 70%
    01:00 -3°C° 0.1 mm 2 mps 675 mmHg 72%
    02:00 -3°C° 0.1 mm 2 mps 674 mmHg 74%
    03:00 -3°C° 0.4 mm 2 mps 674 mmHg 78%
    04:00 -3°C° 0.4 mm 2 mps 674 mmHg 83%
    05:00 -3°C° 0.4 mm 2 mps 673 mmHg 87%
    06:00 -3°C° 0.1 mm 2 mps 673 mmHg 87%
    07:00 -3°C° 0.1 mm 2 mps 673 mmHg 86%
    08:00 -3°C° 0.1 mm 2 mps 673 mmHg 86%
    09:00 -2°C° 0.1 mm 2 mps 674 mmHg 84%
    10:00 -1°C° 0.1 mm 2 mps 674 mmHg 82%
    11:00 +1°C° 0.1 mm 2 mps 675 mmHg 80%
    12:00 +2°C° 0 mm 2 mps 675 mmHg 80%
    13:00 +2°C° 0 mm 2 mps 675 mmHg 80%
    14:00 +3°C° 0 mm 2 mps 675 mmHg 80%
    15:00 +3°C° 0 mm 1 mps 676 mmHg 83%
    16:00 +2°C° 0 mm 1 mps 676 mmHg 86%
    17:00 +1°C° 0 mm 1 mps 676 mmHg 90%
    18:00 +1°C° 0 mm 1 mps 677 mmHg 90%
    19:00 0°C° 0 mm 1 mps 677 mmHg 90%
    20:00 -1°C° 0 mm 0 mps 677 mmHg 91%
    21:00 0°C° 0 mm 1 mps 677 mmHg 91%
    22:00 0°C° 0 mm 1 mps 678 mmHg 91%
    23:00 -1°C° 0 mm 1 mps 678 mmHg 91%

    15 December, Saturday

    Time Temperature Precipitation Wind Pressure Humidity
    00:00 -1°C° 0 mm 1 mps 678 mmHg 90%
    01:00 -1°C° 0 mm 1 mps 678 mmHg 90%
    02:00 -1°C° 0 mm 1 mps 678 mmHg 90%
    03:00 -1°C° 0 mm 1 mps 678 mmHg 89%
    04:00 -1°C° 0 mm 1 mps 678 mmHg 89%
    05:00 -1°C° 0 mm 1 mps 678 mmHg 89%
    06:00 -1°C° 0 mm 1 mps 678 mmHg 87%
    07:00 -1°C° 0 mm 1 mps 679 mmHg 86%
    08:00 0°C° 0 mm 1 mps 679 mmHg 85%
    09:00 0°C° 0 mm 0 mps 680 mmHg 81%
    10:00 +1°C° 0 mm 0 mps 680 mmHg 77%
    11:00 +3°C° 0 mm 0 mps 681 mmHg 73%
    12:00 +3°C° 0 mm 0 mps 681 mmHg 72%
    13:00 +3°C° 0 mm 0 mps 681 mmHg 71%
    14:00 +4°C° 0 mm 1 mps 680 mmHg 70%
    15:00 +3°C° 0 mm 1 mps 680 mmHg 75%
    16:00 +2°C° 0 mm 1 mps 680 mmHg 81%
    17:00 0°C° 0 mm 1 mps 680 mmHg 86%
    18:00 0°C° 0 mm 1 mps 680 mmHg 87%
    19:00 0°C° 0 mm 1 mps 680 mmHg 88%
    20:00 0°C° 0 mm 1 mps 680 mmHg 89%
    21:00 0°C° 0 mm 1 mps 680 mmHg 89%
    22:00 -1°C° 0 mm 1 mps 680 mmHg 90%
    23:00 -1°C° 0 mm 1 mps 680 mmHg 90%

    16 December, Sunday

    Time Temperature Precipitation Wind Pressure Humidity
    00:00 -1°C° 0 mm 1 mps 680 mmHg 90%
    01:00 -1°C° 0 mm 1 mps 680 mmHg 90%
    02:00 -1°C° 0 mm 1 mps 680 mmHg 91%
    03:00 -1°C° 0 mm 1 mps 680 mmHg 90%
    04:00 -1°C° 0 mm 1 mps 680 mmHg 90%
    05:00 -1°C° 0 mm 1 mps 679 mmHg 90%
    06:00 0°C° 0 mm 1 mps 679 mmHg 89%
    07:00 0°C° 0 mm 1 mps 680 mmHg 88%
    08:00 +1°C° 0 mm 1 mps 680 mmHg 87%
    09:00 +2°C° 0 mm 1 mps 680 mmHg 84%
    10:00 +3°C° 0 mm 1 mps 680 mmHg 81%
    11:00 +4°C° 0 mm 1 mps 680 mmHg 78%
    12:00 +4°C° 0 mm 1 mps 679 mmHg 78%
    13:00 +5°C° 0 mm 1 mps 679 mmHg 78%
    14:00 +5°C° 0 mm 1 mps 678 mmHg 78%
    15:00 +4°C° 0 mm 1 mps 678 mmHg 81%
    16:00 +3°C° 0 mm 1 mps 678 mmHg 85%
    17:00 +2°C° 0 mm 1 mps 678 mmHg 88%
    18:00 +2°C° 0 mm 1 mps 677 mmHg 89%
    19:00 +2°C° 0 mm 1 mps 677 mmHg 90%
    20:00 +2°C° 0 mm 1 mps 677 mmHg 90%
    21:00 +2°C° 0 mm 1 mps 677 mmHg 90%
    22:00 +1°C° 0 mm 1 mps 677 mmHg 90%
    23:00 +1°C° 0 mm 1 mps 677 mmHg 91%
    Show more